[[{"header":{"parameterUnit":"m.s-1","parameterCategory":1,"la1":30.2991,"la2":30.254,"lo1":-89.0895,"lo2":-89.0444,"dy":0.0017,"dx":0.0017,"nx":28,"ny":28,"refTime":"2025-12-29T03:00:00:Z","depth":0,"parameterNumber":2,"parameterNumberName":"U-component_of_WINDS"},"data":[0,0,0,0,0,0,0,0,0,0,0,0,0,0,0,0,0,0,0,0,0,0,0,0,0,0,0,0,0,0,0,0,0,0,0,0,0,0,0,0,0,0,0,0,0,0,0,0,0,0,0,0,0,0,0,0,0,0,1.5681,1.5681,0,1.5662,1.5662,1.5662,1.5632,1.5631,1.5631,1.563,1.5609,1.5609,1.5609,0,0,0,0,0,0,0,0,0,0,0,0,0,1.5692,1.5691,1.5681,1.5681,1.5681,1.5662,1.5662,1.5661,1.5632,1.5631,1.5631,1.563,1.5609,1.5609,1.5609,0,0,0,0,0,0,0,0,0,0,0,0,0,1.5681,1.5691,1.5681,1.5664,1.5662,1.5662,1.5662,1.5661,1.5632,1.5631,1.563,1.563,1.5609,1.5609,1.5609,1.5625,0,0,1.5609,1.5609,0,0,0,0,0,0,0,0,1.5682,1.5681,1.5666,1.5665,1.5663,1.5648,1.5658,1.5649,1.5632,1.5643,1.563,1.5629,1.5623,1.5622,1.562,1.5624,1.5623,1.5609,1.5609,1.5609,1.5609,0,0,0,0,0,0,0,1.5683,1.5681,1.5673,1.5666,1.5664,1.5657,1.5654,1.5656,1.5638,1.5642,1.564,1.5638,1.5622,1.562,1.5619,1.5622,1.5609,1.5609,1.5609,1.5609,1.5639,1.564,0,0,0,0,0,0,1.5686,1.5682,1.5674,1.5673,1.5671,1.5657,1.5654,1.5654,1.5638,1.5634,1.5639,1.5637,1.562,1.5619,1.5618,1.5636,1.5609,1.5609,1.5609,1.5638,1.5639,1.564,0,0,0,0,0,0,1.5686,1.5685,1.5675,1.5677,1.5675,1.5658,1.5657,1.5654,1.5652,1.5635,1.5632,1.564,1.562,1.5618,1.5624,1.5635,1.5609,1.5609,1.5637,1.5639,1.564,1.5671,0,0,0,0,0,0,1.5687,1.5686,1.5691,1.5677,1.5675,1.5681,1.5658,1.5654,1.5652,1.5649,1.5636,1.5633,1.5619,1.5624,1.5624,1.5634,1.5608,1.5636,1.5638,1.564,1.5669,1.5673,1.5677,0,0,0,0,0,1.5687,1.57,1.5692,1.5691,1.5682,1.5681,1.568,1.5664,1.5653,1.5659,1.5648,1.5633,1.5634,1.5625,1.5624,1.5635,1.5636,1.5638,1.5639,1.5667,1.5672,1.5677,0,0,0,0,0,0,1.5715,1.5698,1.5688,1.5697,1.5691,1.5676,1.5683,1.567,1.5667,1.5664,1.5645,1.5642,1.565,1.5643,1.5633,1.565,1.5632,1.5634,1.5654,1.5659,1.5663,1.5664,1.5608,0,0,0,0,0,1.5723,1.5724,1.5709,1.5718,1.5716,1.57,1.5699,1.5688,1.568,1.5677,1.5667,1.566,1.5659,1.5658,1.5656,1.5668,1.5665,1.5675,1.5679,1.5683,1.5684,1.5691,1.5696,1.5647,1.5647,1.5647,0,0,1.5737,1.5728,1.573,1.5724,1.5717,1.5719,1.5698,1.57,1.5702,1.5678,1.5682,1.5675,1.5666,1.5675,1.5678,1.5669,1.5698,1.5685,1.5688,1.5688,1.5694,1.5698,1.5703,1.5648,1.5648,1.5648,0,0,1.5766,1.5759,1.5766,1.5761,1.5752,1.5742,1.5744,1.5731,1.5726,1.573,1.5713,1.5714,1.5712,1.5707,1.5704,1.5732,1.5718,1.5732,1.5753,1.576,1.5764,1.5767,1.5777,1.5781,1.5734,1.5734,1.5734,0,1.5785,1.5787,1.5772,1.5776,1.5774,1.5753,1.5761,1.5757,1.5748,1.5747,1.5737,1.5735,1.5727,1.5735,1.5743,1.5741,1.5743,1.5733,1.5764,1.5768,1.577,1.578,1.5784,1.5736,1.5736,1.5735,1.5735,0,1.5812,1.5814,1.5821,1.5814,1.5813,1.5819,1.5804,1.5805,1.5795,1.5785,1.5791,1.5782,1.5778,1.5779,1.5768,1.5786,1.5781,1.5768,1.575,1.5777,1.5786,1.579,1.5738,1.5738,1.5737,1.5737,0,0,1.5856,1.5841,1.5844,1.5841,1.5831,1.5832,1.5838,1.5835,1.5836,1.5831,1.5835,1.5835,1.5824,1.5821,1.5809,1.5815,1.5839,1.5802,1.5802,1.581,1.5859,1.5869,1.5874,1.5831,1.5831,1.5832,1.586,0,1.5882,1.5891,1.5878,1.5889,1.5892,1.5873,1.5878,1.5872,1.5865,1.5865,1.5856,1.5857,1.5842,1.584,1.5845,1.5835,1.5849,1.5833,1.5834,1.5835,1.5837,1.5878,1.5888,1.5915,1.5864,1.5864,1.5865,0,1.5913,1.5911,1.5923,1.5914,1.5914,1.5919,1.5916,1.5917,1.591,1.5904,1.5902,1.5889,1.5894,1.5877,1.5884,1.5874,1.5874,1.5869,1.587,1.5869,1.5851,1.5879,1.5923,1.5927,1.587,1.5869,1.5869,0,1.5945,1.5945,1.5952,1.595,1.5939,1.5943,1.5939,1.5931,1.5931,1.5928,1.5928,1.5926,1.5925,1.5923,1.591,1.59,1.5919,1.5901,1.5915,1.5915,1.5919,1.5919,1.5964,1.5919,1.5919,1.5919,1.5919,0,1.5975,1.5984,1.5966,1.5971,1.598,1.5965,1.5975,1.5968,1.5963,1.5966,1.595,1.5953,1.5936,1.5938,1.5928,1.5935,1.5935,1.593,1.5927,1.5932,1.5932,1.5931,1.5929,1.592,1.592,1.592,1.5919,0,1.6012,1.6,1.6008,1.5997,1.5995,1.6002,1.5993,1.5997,1.5989,1.5993,1.5993,1.598,1.5982,1.5969,1.5967,1.5961,1.5973,1.5967,1.5976,1.5974,1.5988,1.5987,1.6034,1.604,1.5991,1.5991,1.5992,0,1.6032,1.6038,1.6029,1.603,1.6027,1.6029,1.6029,1.6015,1.6015,1.601,1.6015,1.6015,1.6014,1.6017,1.6008,1.6007,1.6001,1.6017,1.6,1.6005,1.6001,1.6001,1.6002,1.6021,1.6021,1.6022,1.6022,0,1.6069,1.6064,1.6064,1.6063,1.6064,1.6062,1.606,1.6062,1.6047,1.6048,1.605,1.605,1.6049,1.605,1.6047,1.6043,1.603,1.6028,1.6031,1.6035,1.604,1.6038,1.5985,1.6027,1.6026,1.6026,1.6026,1.6025,1.6098,1.6103,1.6098,1.6099,1.6096,1.6095,1.6098,1.6091,1.6092,1.6091,1.6083,1.6086,1.6081,1.6077,1.6074,1.6076,1.6068,1.6072,1.6073,1.6075,1.6078,1.604,1.6076,1.6076,1.6075,1.6075,1.6075,0,1.6134,1.6131,1.6132,1.613,1.6131,1.6121,1.6117,1.6119,1.6123,1.6119,1.612,1.6122,1.6123,1.6114,1.6114,1.6118,1.6112,1.6118,1.6118,1.6117,1.6084,1.6082,1.6123,1.6123,1.6123,1.6123,1.6123,1.6123,1.6154,1.6162,1.6156,1.6164,1.6159,1.6163,1.6163,1.6161,1.6158,1.6162,1.6163,1.6158,1.6152,1.6152,1.6153,1.615,1.6151,1.6159,1.6154,1.6124,1.6119,1.6115,1.6112,1.6159,1.6159,1.6187,1.6187,1.6187]},{"header":{"parameterUnit":"m.s-1","parameterCategory":1,"la1":30.2991,"la2":30.254,"lo1":-89.0895,"lo2":-89.0444,"dy":0.0017,"dx":0.0017,"nx":28,"ny":28,"refTime":"2025-12-29T03:00:00:Z","depth":0,"parameterNumber":3,"parameterNumberName":"V-component_of_WINDS"},"data":[0,0,0,0,0,0,0,0,0,0,0,0,0,0,0,0,0,0,0,0,0,0,0,0,0,0,0,0,0,0,0,0,0,0,0,0,0,0,0,0,0,0,0,0,0,0,0,0,0,0,0,0,0,0,0,0,0,0,-5.4687,-5.4689,0,-5.4786,-5.4787,-5.4789,-5.4788,-5.4786,-5.4785,-5.4784,-5.4879,-5.4882,-5.4886,0,0,0,0,0,0,0,0,0,0,0,0,0,-5.4493,-5.4497,-5.4687,-5.4689,-5.469,-5.4786,-5.4787,-5.4789,-5.4788,-5.4786,-5.4785,-5.4783,-5.4877,-5.4882,-5.4886,0,0,0,0,0,0,0,0,0,0,0,0,0,-5.4583,-5.4498,-5.4687,-5.4701,-5.4703,-5.4786,-5.4788,-5.4789,-5.4788,-5.4786,-5.4784,-5.4783,-5.4876,-5.4881,-5.4887,-5.496,0,0,-5.4904,-5.4906,0,0,0,0,0,0,0,0,-5.4578,-5.459,-5.4698,-5.47,-5.4703,-5.4773,-5.4754,-5.4846,-5.4789,-5.4756,-5.4784,-5.4782,-5.4845,-5.4853,-5.4875,-5.4964,-5.4968,-5.4904,-5.4908,-5.491,-5.4912,0,0,0,0,0,0,0,-5.4572,-5.4586,-5.4726,-5.4699,-5.4703,-5.4701,-5.4712,-5.4771,-5.481,-5.4759,-5.4759,-5.4771,-5.4846,-5.487,-5.4877,-5.497,-5.4904,-5.4909,-5.4913,-5.4915,-5.5126,-5.5128,0,0,0,0,0,0,-5.4564,-5.4581,-5.4723,-5.4729,-5.4635,-5.4706,-5.4718,-5.4752,-5.4809,-5.4816,-5.4772,-5.477,-5.4861,-5.4871,-5.4881,-5.4972,-5.491,-5.4915,-5.4919,-5.5124,-5.5127,-5.5129,0,0,0,0,0,0,-5.4559,-5.4576,-5.4719,-5.4655,-5.4673,-5.4712,-5.475,-5.4755,-5.478,-5.482,-5.4826,-5.479,-5.486,-5.4873,-5.4941,-5.4975,-5.4918,-5.4923,-5.5121,-5.5125,-5.5128,-5.5153,0,0,0,0,0,0,-5.4554,-5.4575,-5.4604,-5.4656,-5.4677,-5.4779,-5.4752,-5.4759,-5.479,-5.4788,-5.4838,-5.4844,-5.486,-5.4933,-5.4947,-5.4981,-5.4927,-5.5118,-5.5123,-5.5127,-5.5149,-5.5157,-5.5163,0,0,0,0,0,-5.4547,-5.4605,-5.4605,-5.4622,-5.4714,-5.4781,-5.4793,-5.4811,-5.4793,-5.4822,-5.4848,-5.4843,-5.4969,-5.494,-5.4956,-5.4992,-5.5116,-5.5121,-5.5126,-5.5146,-5.5155,-5.5163,0,0,0,0,0,0,-5.4552,-5.4612,-5.4613,-5.469,-5.4731,-5.4781,-5.4818,-5.482,-5.4865,-5.4861,-5.488,-5.4891,-5.496,-5.4983,-5.4949,-5.5067,-5.504,-5.5049,-5.505,-5.5059,-5.5066,-5.5059,-5.4932,0,0,0,0,0,-5.4563,-5.4615,-5.4663,-5.4726,-5.4747,-5.4779,-5.4809,-5.482,-5.4862,-5.4879,-5.491,-5.4949,-5.4998,-5.503,-5.5076,-5.5153,-5.5164,-5.5186,-5.5193,-5.5198,-5.5205,-5.5249,-5.526,-5.5146,-5.5146,-5.5146,0,0,-5.4585,-5.4624,-5.4654,-5.4728,-5.4762,-5.4813,-5.4794,-5.4848,-5.4887,-5.4886,-5.4954,-5.4978,-5.5024,-5.5097,-5.5131,-5.5118,-5.5239,-5.5205,-5.5209,-5.5213,-5.5255,-5.5266,-5.5276,-5.5149,-5.5149,-5.5148,0,0,-5.4651,-5.4686,-5.4743,-5.4778,-5.4829,-5.4851,-5.4865,-5.4916,-5.4933,-5.5001,-5.5003,-5.5048,-5.5131,-5.5164,-5.5192,-5.5274,-5.5271,-5.5288,-5.5324,-5.5367,-5.5376,-5.5384,-5.5414,-5.5425,-5.5295,-5.5295,-5.5295,0,-5.4671,-5.4751,-5.4772,-5.4829,-5.4861,-5.4867,-5.4925,-5.4956,-5.5019,-5.5041,-5.5027,-5.5134,-5.5164,-5.5246,-5.5267,-5.5289,-5.5305,-5.5283,-5.5373,-5.5382,-5.5389,-5.5418,-5.543,-5.5297,-5.5297,-5.5297,-5.5296,0,-5.4773,-5.4829,-5.4869,-5.4934,-5.4971,-5.5027,-5.5056,-5.5091,-5.5099,-5.5122,-5.5193,-5.523,-5.5286,-5.5306,-5.5313,-5.539,-5.5381,-5.537,-5.5343,-5.5402,-5.5429,-5.5441,-5.53,-5.5299,-5.5298,-5.5298,0,0,-5.4844,-5.4922,-5.4937,-5.4967,-5.5026,-5.5068,-5.5126,-5.5183,-5.5213,-5.5257,-5.5305,-5.5377,-5.5368,-5.54,-5.5411,-5.5448,-5.5512,-5.5432,-5.5434,-5.5447,-5.56,-5.5609,-5.5621,-5.5511,-5.5513,-5.5515,-5.5597,0,-5.4917,-5.5022,-5.5044,-5.5134,-5.5186,-5.5193,-5.5243,-5.5284,-5.5307,-5.5353,-5.5378,-5.5429,-5.5413,-5.5433,-5.547,-5.5497,-5.5543,-5.5491,-5.5556,-5.5558,-5.5545,-5.5636,-5.5644,-5.572,-5.5608,-5.561,-5.5611,0,-5.5016,-5.5067,-5.5163,-5.5217,-5.524,-5.5285,-5.534,-5.5385,-5.5431,-5.5445,-5.5483,-5.549,-5.5549,-5.552,-5.5602,-5.5566,-5.5594,-5.5611,-5.5614,-5.5621,-5.5588,-5.5646,-5.5744,-5.5756,-5.5628,-5.5627,-5.5625,0,-5.506,-5.5151,-5.5221,-5.5247,-5.5311,-5.5343,-5.5371,-5.5416,-5.545,-5.5498,-5.552,-5.5573,-5.5602,-5.5642,-5.5664,-5.564,-5.5744,-5.5716,-5.5757,-5.5757,-5.5779,-5.5777,-5.5884,-5.5796,-5.5796,-5.5795,-5.5795,0,-5.514,-5.5199,-5.5242,-5.5285,-5.5352,-5.5376,-5.544,-5.5467,-5.5508,-5.5556,-5.5564,-5.5608,-5.5633,-5.5681,-5.5698,-5.5764,-5.5776,-5.5789,-5.5793,-5.5789,-5.5788,-5.5807,-5.5803,-5.5798,-5.5798,-5.5797,-5.5797,0,-5.5199,-5.5231,-5.5308,-5.5365,-5.538,-5.5427,-5.5474,-5.5516,-5.554,-5.56,-5.5616,-5.5653,-5.571,-5.5736,-5.5805,-5.5817,-5.5892,-5.5892,-5.5877,-5.5879,-5.5919,-5.5915,-5.6042,-5.606,-5.596,-5.5961,-5.5961,0,-5.5248,-5.5295,-5.5357,-5.5392,-5.5421,-5.5475,-5.5511,-5.5537,-5.5574,-5.5632,-5.5666,-5.5724,-5.5772,-5.5862,-5.5895,-5.5948,-5.5949,-5.5991,-5.5957,-5.5953,-5.5951,-5.5949,-5.5954,-5.5996,-5.5997,-5.5998,-5.5999,0,-5.5333,-5.5347,-5.54,-5.5459,-5.5502,-5.5549,-5.5594,-5.5621,-5.5654,-5.5695,-5.5755,-5.5792,-5.5865,-5.5922,-5.5979,-5.6005,-5.6008,-5.6009,-5.6022,-5.6018,-5.6008,-5.6015,-5.5895,-5.6006,-5.6005,-5.6005,-5.6004,-5.6004,-5.5389,-5.5431,-5.5483,-5.5542,-5.558,-5.5623,-5.5666,-5.5698,-5.5749,-5.5812,-5.5824,-5.5888,-5.5935,-5.6011,-5.604,-5.609,-5.608,-5.6097,-5.6102,-5.6106,-5.6109,-5.6001,-5.61,-5.6099,-5.6099,-5.6099,-5.6099,0,-5.5475,-5.5509,-5.5563,-5.5629,-5.5676,-5.5677,-5.5728,-5.5766,-5.5824,-5.5868,-5.5917,-5.5986,-5.6043,-5.608,-5.6137,-5.617,-5.6172,-5.6184,-5.6182,-5.6188,-5.6114,-5.6098,-5.6181,-5.6181,-5.6181,-5.6181,-5.6181,-5.6181,-5.5525,-5.5597,-5.5618,-5.5709,-5.5743,-5.5808,-5.5838,-5.5877,-5.5914,-5.5992,-5.6041,-5.6066,-5.6108,-5.6169,-5.622,-5.623,-5.625,-5.6263,-5.6272,-5.6202,-5.6193,-5.6185,-5.617,-5.6267,-5.6267,-5.6342,-5.6343,-5.6343]}]]